When you browse on this site, cookies collect data to enhance your experience and personalize the content and advertising you see.
Visit our Privacy Policy to learn more. By continuing to use the site, you agree to this use of cookies and data.
  • In Spain
  • List of Countries
  • For 7 days
  • Water Temperature
  • Weather Map
  • Weather Widgets
  • user-avatar
    Login

    Hourly Weather Borovkovskiy

    Today, 22 August, Thursday

    Time Temperature Precipitation Wind Pressure Humidity
    00:00 +20°C° 0 mm 2 mps 746 mmHg 84%
    01:00 +20°C° 0 mm 2 mps 746 mmHg 85%
    02:00 +19°C° 0 mm 2 mps 746 mmHg 86%
    03:00 +19°C° 0 mm 2 mps 746 mmHg 87%
    04:00 +19°C° 0 mm 2 mps 745 mmHg 88%
    05:00 +19°C° 0 mm 2 mps 745 mmHg 89%
    06:00 +18°C° 0 mm 2 mps 745 mmHg 90%
    07:00 +20°C° 0 mm 2 mps 745 mmHg 85%
    08:00 +22°C° 0 mm 3 mps 745 mmHg 81%
    09:00 +24°C° 0 mm 3 mps 745 mmHg 76%
    10:00 +25°C° 0.3 mm 3 mps 745 mmHg 73%
    11:00 +26°C° 0.3 mm 3 mps 745 mmHg 70%
    12:00 +27°C° 0.3 mm 3 mps 744 mmHg 67%
    13:00 +27°C° 1.2 mm 3 mps 745 mmHg 68%
    14:00 +27°C° 1.2 mm 3 mps 745 mmHg 70%
    15:00 +27°C° 1.2 mm 4 mps 745 mmHg 71%
    16:00 +25°C° 0.6 mm 4 mps 745 mmHg 77%
    17:00 +22°C° 0.6 mm 5 mps 745 mmHg 83%
    18:00 +20°C° 0.6 mm 5 mps 745 mmHg 89%
    19:00 +19°C° 0.1 mm 5 mps 746 mmHg 89%
    20:00 +18°C° 0.1 mm 4 mps 746 mmHg 90%
    21:00 +17°C° 0.1 mm 4 mps 747 mmHg 90%
    22:00 +15°C° 0 mm 4 mps 747 mmHg 91%
    23:00 +14°C° 0 mm 4 mps 747 mmHg 92%

    Tomorrow, 23 August, Friday

    Time Temperature Precipitation Wind Pressure Humidity
    00:00 +14°C° 0 mm 3 mps 747 mmHg 92%
    01:00 +13°C° 0 mm 3 mps 748 mmHg 93%
    02:00 +13°C° 0 mm 3 mps 748 mmHg 93%
    03:00 +12°C° 0 mm 3 mps 748 mmHg 94%
    04:00 +12°C° 0 mm 3 mps 748 mmHg 94%
    05:00 +12°C° 0 mm 3 mps 748 mmHg 94%
    06:00 +13°C° 0 mm 2 mps 749 mmHg 95%
    07:00 +13°C° 0 mm 3 mps 749 mmHg 90%
    08:00 +16°C° 0 mm 3 mps 749 mmHg 86%
    09:00 +17°C° 0 mm 3 mps 749 mmHg 81%
    10:00 +18°C° 0 mm 3 mps 749 mmHg 75%
    11:00 +19°C° 0 mm 3 mps 749 mmHg 68%
    12:00 +21°C° 0 mm 3 mps 749 mmHg 61%
    13:00 +21°C° 0 mm 3 mps 749 mmHg 60%
    14:00 +21°C° 0 mm 3 mps 749 mmHg 58%
    15:00 +22°C° 0 mm 3 mps 749 mmHg 56%
    16:00 +21°C° 0 mm 2 mps 749 mmHg 60%
    17:00 +21°C° 0 mm 2 mps 749 mmHg 64%
    18:00 +20°C° 0 mm 2 mps 749 mmHg 67%
    19:00 +20°C° 0 mm 1 mps 749 mmHg 71%
    20:00 +18°C° 0 mm 1 mps 749 mmHg 74%
    21:00 +15°C° 0 mm 1 mps 749 mmHg 77%
    22:00 +15°C° 0 mm 1 mps 749 mmHg 78%
    23:00 +14°C° 0 mm 1 mps 749 mmHg 79%

    Day after tomorrow, 24 August, Saturday

    Time Temperature Precipitation Wind Pressure Humidity
    00:00 +14°C° 0 mm 1 mps 749 mmHg 80%
    01:00 +14°C° 0 mm 1 mps 749 mmHg 81%
    02:00 +13°C° 0 mm 1 mps 749 mmHg 83%
    03:00 +13°C° 0 mm 1 mps 749 mmHg 85%
    04:00 +13°C° 0 mm 1 mps 749 mmHg 86%
    05:00 +13°C° 0 mm 1 mps 749 mmHg 86%
    06:00 +12°C° 0 mm 1 mps 749 mmHg 87%
    07:00 +14°C° 0 mm 1 mps 749 mmHg 81%
    08:00 +16°C° 0 mm 1 mps 749 mmHg 76%
    09:00 +19°C° 0 mm 1 mps 750 mmHg 71%
    10:00 +20°C° 0 mm 1 mps 749 mmHg 65%
    11:00 +21°C° 0 mm 1 mps 749 mmHg 60%
    12:00 +22°C° 0 mm 1 mps 749 mmHg 55%
    13:00 +23°C° 0 mm 1 mps 749 mmHg 53%
    14:00 +23°C° 0 mm 1 mps 749 mmHg 52%
    15:00 +23°C° 0 mm 2 mps 748 mmHg 50%
    16:00 +23°C° 0 mm 1 mps 748 mmHg 55%
    17:00 +22°C° 0 mm 1 mps 748 mmHg 60%
    18:00 +22°C° 0 mm 1 mps 747 mmHg 65%
    19:00 +20°C° 0 mm 1 mps 747 mmHg 68%
    20:00 +18°C° 0 mm 1 mps 747 mmHg 71%
    21:00 +16°C° 0 mm 2 mps 747 mmHg 75%
    22:00 +15°C° 0 mm 2 mps 747 mmHg 76%
    23:00 +15°C° 0 mm 2 mps 747 mmHg 77%

    25 August, Sunday

    Time Temperature Precipitation Wind Pressure Humidity
    00:00 +15°C° 0 mm 2 mps 747 mmHg 79%
    01:00 +14°C° 0 mm 2 mps 747 mmHg 81%
    02:00 +14°C° 0 mm 2 mps 747 mmHg 82%
    03:00 +13°C° 0 mm 2 mps 746 mmHg 84%
    04:00 +13°C° 0 mm 2 mps 746 mmHg 85%
    05:00 +13°C° 0 mm 2 mps 746 mmHg 87%
    06:00 +13°C° 0 mm 2 mps 746 mmHg 89%
    07:00 +14°C° 0 mm 3 mps 746 mmHg 85%
    08:00 +16°C° 0 mm 3 mps 746 mmHg 81%
    09:00 +18°C° 0 mm 3 mps 746 mmHg 78%
    10:00 +19°C° 0 mm 3 mps 746 mmHg 73%
    11:00 +21°C° 0 mm 3 mps 746 mmHg 68%
    12:00 +22°C° 0 mm 4 mps 746 mmHg 63%
    13:00 +22°C° 0.3 mm 4 mps 746 mmHg 65%
    14:00 +22°C° 0.3 mm 4 mps 745 mmHg 67%
    15:00 +22°C° 0.3 mm 5 mps 745 mmHg 68%
    16:00 +21°C° 0.3 mm 4 mps 745 mmHg 72%
    17:00 +21°C° 0.3 mm 3 mps 745 mmHg 75%
    18:00 +20°C° 0.3 mm 3 mps 745 mmHg 79%
    19:00 +18°C° 0 mm 3 mps 746 mmHg 80%
    20:00 +17°C° 0 mm 3 mps 746 mmHg 80%
    21:00 +14°C° 0 mm 3 mps 747 mmHg 81%
    22:00 +13°C° 0 mm 3 mps 747 mmHg 84%
    23:00 +13°C° 0 mm 3 mps 747 mmHg 87%

    26 August, Monday

    Time Temperature Precipitation Wind Pressure Humidity
    00:00 +12°C° 0 mm 3 mps 748 mmHg 89%
    01:00 +11°C° 0 mm 3 mps 748 mmHg 91%
    02:00 +11°C° 0 mm 3 mps 748 mmHg 92%
    03:00 +10°C° 0 mm 3 mps 749 mmHg 93%
    04:00 +10°C° 0 mm 3 mps 749 mmHg 94%
    05:00 +9°C° 0 mm 2 mps 749 mmHg 94%
    06:00 +9°C° 0 mm 2 mps 749 mmHg 95%
    07:00 +12°C° 0 mm 2 mps 750 mmHg 89%
    08:00 +13°C° 0 mm 2 mps 750 mmHg 84%
    09:00 +15°C° 0 mm 2 mps 750 mmHg 78%
    10:00 +16°C° 0 mm 2 mps 750 mmHg 72%
    11:00 +17°C° 0 mm 2 mps 750 mmHg 65%
    12:00 +18°C° 0 mm 2 mps 751 mmHg 58%
    13:00 +18°C° 0 mm 2 mps 750 mmHg 57%
    14:00 +19°C° 0 mm 2 mps 750 mmHg 55%
    15:00 +20°C° 0 mm 1 mps 750 mmHg 53%
    16:00 +20°C° 0 mm 1 mps 750 mmHg 58%
    17:00 +19°C° 0 mm 1 mps 750 mmHg 62%
    18:00 +19°C° 0 mm 1 mps 749 mmHg 66%
    19:00 +16°C° 0 mm 1 mps 749 mmHg 70%
    20:00 +15°C° 0 mm 1 mps 749 mmHg 73%
    21:00 +13°C° 0 mm 1 mps 749 mmHg 76%
    22:00 +13°C° 0 mm 1 mps 749 mmHg 78%
    23:00 +12°C° 0 mm 1 mps 750 mmHg 80%

    27 August, Tuesday

    Time Temperature Precipitation Wind Pressure Humidity
    00:00 +12°C° 0 mm 2 mps 750 mmHg 81%
    01:00 +10°C° 0 mm 2 mps 750 mmHg 83%
    02:00 +10°C° 0 mm 2 mps 749 mmHg 85%
    03:00 +10°C° 0 mm 2 mps 749 mmHg 86%
    04:00 +10°C° 0 mm 2 mps 749 mmHg 87%
    05:00 +9°C° 0 mm 2 mps 749 mmHg 87%
    06:00 +9°C° 0 mm 2 mps 749 mmHg 87%
    07:00 +12°C° 0 mm 2 mps 749 mmHg 82%
    08:00 +13°C° 0 mm 3 mps 749 mmHg 77%
    09:00 +14°C° 0 mm 3 mps 749 mmHg 71%
    10:00 +17°C° 0 mm 3 mps 749 mmHg 67%
    11:00 +18°C° 0 mm 3 mps 748 mmHg 63%
    12:00 +19°C° 0 mm 4 mps 748 mmHg 59%
    13:00 +19°C° 0 mm 4 mps 748 mmHg 58%
    14:00 +20°C° 0 mm 4 mps 747 mmHg 57%
    15:00 +20°C° 0 mm 4 mps 747 mmHg 55%
    16:00 +20°C° 0 mm 4 mps 746 mmHg 59%
    17:00 +19°C° 0 mm 3 mps 746 mmHg 63%
    18:00 +19°C° 0 mm 3 mps 745 mmHg 67%
    19:00 +17°C° 0 mm 3 mps 745 mmHg 68%
    20:00 +16°C° 0 mm 3 mps 744 mmHg 70%
    21:00 +13°C° 0 mm 3 mps 744 mmHg 71%
    22:00 +13°C° 0 mm 4 mps 743 mmHg 71%
    23:00 +13°C° 0 mm 4 mps 743 mmHg 71%
    Show more